Dewpoint
51 51 51 50 51 50 51 51 51 51 51 51 51 51 51 51 51 51 51 52 52 52 52 52 53 53 53 53 53 53 54 50 49 48 47 46 47 51 57 58 57 58 58 49 39 33 31 33 33 32 33 31 32 30 32 34 33 26 21 20 19 16 14 14 13 12 12 9 9 10 10 9 13 51 55 59 61 61 62 63 64 65 65 65 67 67 68 68
50 50 50 50 50 51 51 51 51 51 51 51 51 52 52 51 51 51 52 53 53 53 53 52 52 53 53 53 53 54 52 50 48 47 46 48 57 56 57 59 62 58 56 43 36 34 28 30 30 31 31 28 32 29 32 31 32 29 24 19 18 15 14 13 12 13 10 9 10 10 12 11 8 47 42 57 58 59 60 62 64 64 65 66 67 67 67 67
50 50 51 51 51 51 51 51 51 51 51 51 51 51 51 51 52 52 53 53 53 53 53 53 53 52 53 53 53 53 51 49 46 40 40 57 56 56 55 59 62 59 41 39 37 33 27 28 27 30 31 29 30 29 30 28 30 29 25 17 16 14 12 12 12 11 11 11 10 11 11 11 10 22 46 56 57 59 59 60 62 63 63 65 66 67 67 67
50 50 50 51 51 51 51 51 51 52 51 51 51 51 51 51 51 52 52 52 52 53 52 52 52 52 52 52 53 52 49 46 30 36 44 57 60 57 56 58 61 58 39 40 39 32 29 26 29 30 30 29 29 29 27 27 24 22 27 24 22 16 15 16 14 12 12 12 11 11 11 10 10 10 55 57 55 55 56 61 61 62 64 65 66 67 67 66
50 50 50 50 51 51 51 51 51 51 52 51 51 51 51 51 51 51 51 51 51 51 52 52 51 51 51 52 53 51 47 7 32 38 43 62 63 61 58 58 59 56 41 35 34 28 28 28 28 29 28 26 28 28 27 28 26 19 22 25 24 21 16 17 15 13 12 12 11 10 10 9 16 53 56 55 48 48 54 58 62 63 65 65 66 66 67 66
50 51 51 51 51 51 51 50 51 51 51 51 51 51 51 51 51 51 51 51 51 51 51 51 51 51 51 52 51 50 29 3 21 33 65 62 64 62 59 59 59 53 36 29 27 27 24 26 25 25 27 26 27 25 27 27 27 25 25 22 20 16 15 15 13 12 11 10 10 10 10 10 10 29 55 53 45 45 58 61 63 65 65 66 66 66 66 66
50 50 51 51 51 51 51 51 50 50 50 51 51 50 50 50 50 51 51 51 51 51 50 51 51 51 51 52 48 46 29 21 38 37 58 65 63 61 59 59 61 45 34 27 25 23 24 23 23 24 25 25 25 27 27 28 24 26 25 23 22 19 15 14 13 12 10 9 9 9 11 9 9 7 32 49 45 49 62 64 65 65 66 66 66 66 66 66
50 50 50 50 51 51 51 50 50 50 50 50 50 50 50 50 50 51 51 51 51 50 50 50 50 50 51 48 46 41 36 28 30 36 63 64 61 59 59 55 47 40 33 28 25 22 23 22 23 24 22 23 24 25 26 26 25 21 20 20 19 18 16 14 12 9 9 8 8 9 9 8 9 9 44 46 47 62 63 64 65 65 65 66 65 65 66 65
49 50 50 50 50 50 50 50 50 50 50 50 50 50 50 50 50 50 50 50 50 50 50 50 50 50 51 48 41 6 -5 21 35 52 59 59 58 56 50 46 40 37 33 26 24 22 22 21 23 23 21 22 23 23 23 22 20 20 21 21 19 17 15 12 9 7 7 8 9 9 8 9 9 15 43 45 53 63 63 64 65 65 65 65 65 65 65 65
49 49 50 50 50 50 50 50 50 50 50 50 50 50 50 50 50 50 50 50 50 50 50 50 50 50 49 46 32 8 4 15 51 53 54 54 52 49 44 40 37 32 28 26 23 22 22 23 22 26 25 22 22 21 21 20 19 16 15 15 15 13 10 7 6 5 5 8 10 9 8 8 9 15 12 37 58 63 63 63 64 65 64 65 65 65 65 65
49 49 49 49 50 50 50 49 50 50 50 51 50 50 50 50 50 50 50 50 50 50 50 50 49 48 47 47 28 13 16 46 49 48 48 44 44 44 42 37 34 30 28 26 22 21 21 26 29 29 26 24 16 14 17 13 16 12 9 9 9 8 7 6 6 6 7 5 8 8 7 8 9 6 11 40 60 63 62 63 64 64 64 64 65 65 64 59
49 49 49 49 49 49 50 49 50 50 51 51 50 50 50 50 50 50 50 50 50 51 50 50 49 49 48 44 35 18 22 38 39 45 44 40 39 41 39 32 33 30 27 25 25 23 23 26 30 29 25 27 22 19 18 12 13 11 13 9 9 9 8 8 6 6 7 5 9 9 8 6 9 3 3 44 61 62 62 62 63 63 64 64 64 64 62 59
49 49 49 49 49 49 49 50 50 50 50 50 50 50 50 50 50 50 50 51 50 50 51 48 48 49 45 29 32 31 26 26 26 31 27 28 36 37 37 30 30 28 27 23 24 25 25 29 30 28 29 28 25 22 19 16 12 18 14 10 9 10 9 9 8 7 8 8 11 8 7 8 7 9 7 46 61 62 62 62 63 63 63 64 64 64 63 60
49 49 49 49 49 49 49 49 50 50 50 50 50 50 50 50 51 51 50 50 51 51 51 50 50 48 43 27 28 38 37 35 34 35 34 35 31 29 33 27 26 25 24 22 22 26 27 28 29 29 25 24 23 19 13 13 14 10 11 13 12 10 10 9 13 11 8 11 11 7 10 9 9 10 10 34 60 61 61 62 62 63 63 63 64 64 62 60
49 49 49 49 49 49 49 49 49 50 50 50 50 50 50 50 51 51 51 51 51 51 50 50 49 46 39 35 39 41 53 49 41 37 36 35 32 31 30 29 24 24 23 22 22 24 23 25 25 24 21 25 23 20 14 10 12 12 10 9 16 9 10 10 13 12 6 8 11 8 16 8 8 9 11 35 58 60 60 61 62 62 62 63 63 63 62 61
49 49 49 49 49 49 49 49 49 49 49 50 49 49 50 51 51 51 51 51 51 50 49 47 48 47 40 32 32 49 41 41 41 48 43 35 33 30 29 28 27 25 24 21 21 21 24 24 22 22 21 21 17 12 12 12 12 18 11 16 13 14 13 12 14 10 9 9 9 7 7 8 6 8 10 35 56 58 59 60 61 61 62 62 63 63 60 60
48 48 48 48 48 49 49 49 49 49 49 49 49 49 50 50 51 51 51 51 51 51 48 46 48 48 27 30 38 31 30 37 45 45 43 36 32 31 30 30 30 27 24 22 27 22 24 23 25 24 25 19 18 13 12 14 13 14 17 15 22 14 15 12 12 13 10 9 5 6 7 10 8 13 12 32 53 55 57 59 59 61 61 62 62 61 59 60
48 48 48 48 48 48 48 49 49 49 49 49 49 49 48 51 51 51 51 51 50 49 48 49 47 40 30 40 28 29 39 38 37 41 42 39 32 31 31 30 31 30 30 28 29 26 26 25 23 22 26 22 18 16 14 11 15 12 14 13 14 15 16 12 12 12 8 8 8 11 10 9 8 8 11 32 48 51 53 56 58 60 61 61 62 60 60 60
48 48 48 48 48 48 48 49 49 49 49 49 49 49 50 51 49 47 46 47 44 38 33 39 34 22 20 26 36 35 35 36 33 34 33 39 38 34 33 34 31 29 30 27 27 26 23 26 28 18 18 19 18 12 12 13 14 12 14 15 20 16 13 11 12 12 9 8 6 8 7 6 8 8 11 28 46 47 49 53 57 58 60 61 61 59 59 60
48 47 48 48 48 48 48 48 49 49 49 48 46 46 39 30 28 35 46 47 44 40 36 37 37 29 32 29 26 29 32 35 31 32 33 36 35 34 33 32 28 29 26 28 26 26 22 21 19 18 18 23 25 21 17 12 13 12 13 13 10 10 10 11 12 11 11 10 9 9 10 9 9 8 11 17 41 46 47 52 56 58 59 60 60 59 59 60
48 48 48 48 48 48 48 49 49 49 48 48 46 36 26 27 19 16 22 41 44 44 42 39 40 35 30 30 31 31 29 32 31 30 33 32 25 31 26 26 24 27 27 27 27 33 27 21 20 22 23 24 26 28 28 24 24 16 13 12 9 10 10 11 12 14 15 20 19 20 13 10 9 11 14 23 39 44 46 50 55 57 58 60 59 59 59 60
47 47 47 47 48 48 48 48 49 49 49 47 45 39 37 31 26 21 26 26 25 38 42 41 38 37 37 35 33 32 33 30 28 27 31 26 21 22 20 22 21 20 27 26 25 22 19 19 22 25 26 29 28 28 30 25 24 24 16 14 14 12 14 15 18 18 19 21 17 19 18 18 18 18 18 24 35 43 45 50 54 57 59 58 58 58 59 59
47 47 47 47 47 48 48 49 49 49 44 44 42 42 39 38 35 34 35 32 31 31 33 36 36 35 33 33 35 34 31 29 26 28 28 26 21 21 20 18 19 20 27 28 23 24 21 18 21 20 27 25 25 26 25 27 29 23 21 18 15 17 16 13 24 25 24 24 22 20 18 19 20 22 21 23 18 25 41 49 54 57 58 57 58 58 59 58
47 47 47 47 48 48 48 48 48 45 41 42 41 39 38 37 36 37 34 32 29 27 30 31 32 31 30 27 33 33 30 29 29 26 30 24 20 21 19 18 19 21 19 21 22 21 20 21 20 22 24 23 23 24 24 22 18 27 26 20 18 17 16 14 16 25 30 27 29 18 17 13 21 16 24 42 47 30 36 52 55 57 58 58 59 59 59 58
46 47 47 47 47 48 48 48 42 43 43 42 41 42 41 40 39 38 34 31 27 29 31 27 32 32 29 33 36 33 32 31 31 28 29 24 20 20 20 23 21 19 20 19 20 20 19 21 24 18 21 21 22 19 22 23 19 22 27 24 21 19 18 17 22 21 21 17 27 13 12 15 17 26 25 38 47 45 47 52 55 57 58 58 58 58 58 58
46 47 47 47 47 47 48 42 41 44 43 39 35 34 37 39 41 41 35 28 21 23 31 25 29 24 28 27 33 31 30 27 29 29 27 24 26 21 24 22 23 20 20 18 18 21 19 25 21 19 21 21 19 17 19 22 17 17 18 25 22 19 20 20 20 21 16 13 21 25 12 14 19 23 29 43 48 50 50 52 55 57 57 58 58 58 57 58
46 46 47 47 47 48 42 35 45 44 34 28 31 39 38 40 44 41 27 19 16 28 27 25 21 20 23 24 28 23 12 10 28 28 27 29 22 26 19 20 23 21 22 23 17 14 15 16 19 21 23 19 20 16 21 20 18 17 25 27 24 22 22 23 22 19 18 27 28 27 17 12 12 21 31 46 49 50 51 53 55 56 57 57 58 57 57 57
46 47 47 46 47 47 44 45 44 42 38 34 41 40 40 41 42 40 26 7 -2 18 32 22 21 24 22 26 26 16 15 23 19 24 27 25 24 23 19 19 20 20 15 19 19 23 23 20 20 19 21 17 14 14 22 20 18 18 24 24 22 22 23 22 21 21 21 16 11 17 26 14 16 23 35 43 47 49 50 52 54 56 57 57 57 57 57 57
47 47 47 46 47 47 46 45 44 42 42 42 42 41 41 43 40 32 23 13 14 25 24 24 28 20 21 25 23 20 20 22 20 24 26 25 23 22 18 21 20 20 16 17 19 22 18 13 14 14 14 14 15 14 15 20 18 17 19 25 23 22 21 21 19 16 19 11 9 14 23 13 16 25 30 39 48 48 50 52 54 55 56 56 56 56 55 57
47 47 47 47 46 45 42 46 44 44 44 44 43 42 43 37 28 20 14 3 23 17 21 24 20 16 22 20 20 19 18 19 22 24 24 22 22 25 24 23 19 18 18 18 14 16 17 32 25 13 11 11 13 14 15 18 15 27 21 19 18 18 22 25 21 21 19 8 12 15 26 16 13 23 29 36 41 48 50 51 52 53 54 54 54 55 56 57
47 47 47 47 45 44 43 38 40 42 44 43 43 42 33 28 24 16 10 16 24 22 18 12 13 11 12 15 16 17 18 19 20 22 22 23 23 23 23 21 22 24 23 21 19 18 19 18 17 16 21 15 12 11 16 18 18 19 18 18 15 17 22 15 21 19 8 10 15 16 25 19 14 20 30 34 35 49 50 50 51 51 52 53 53 54 56 57
47 47 48 47 46 46 42 33 35 42 43 44 45 33 18 5 15 11 10 24 20 20 13 13 10 7 6 13 15 16 15 19 21 21 21 21 23 21 22 21 22 18 18 19 18 23 20 17 16 14 27 15 14 13 15 15 17 18 18 17 14 13 13 9 15 6 6 11 15 23 22 17 18 25 36 40 38 48 50 50 50 51 51 51 52 53 55 57
48 48 48 48 48 46 46 44 44 44 45 45 38 28 16 11 2 15 17 19 20 18 17 13 9 8 6 6 19 18 18 18 22 19 21 21 21 21 22 21 23 22 16 24 20 18 18 19 17 14 13 20 14 13 15 13 13 14 14 15 12 7 7 4 11 12 13 15 19 21 24 19 26 32 38 44 44 48 50 50 50 50 51 51 52 53 54 56
48 48 46 47 47 47 47 47 46 46 44 43 30 22 6 -4 0 36 20 24 15 17 12 11 8 8 8 10 11 22 18 21 22 21 21 22 21 22 21 22 23 22 23 25 14 16 10 11 14 13 13 17 15 13 13 19 13 11 12 11 16 15 12 4 13 6 9 12 18 24 16 12 25 31 44 46 48 50 50 51 51 52 52 52 53 54 54 55
48 47 46 45 47 47 47 47 46 47 44 31 25 17 5 7 16 18 21 24 19 13 12 12 6 8 11 9 14 20 25 25 32 18 21 21 22 24 23 21 22 23 22 18 23 16 10 13 15 15 12 14 14 16 15 15 14 19 16 13 12 14 21 7 18 18 18 14 13 22 20 27 33 42 46 48 49 50 51 51 51 51 51 52 53 53 54 54
46 43 44 43 47 48 47 47 46 45 34 23 21 13 6 14 2 19 15 20 15 14 14 6 8 7 13 11 15 5 30 26 33 26 27 22 23 22 23 22 21 20 19 20 22 13 13 14 18 19 15 12 11 16 14 11 14 21 12 12 14 19 18 20 19 23 19 19 11 16 30 35 36 40 45 47 48 48 49 49 50 50 51 51 52 53 53 54
44 45 43 46 49 49 47 47 46 44 27 18 16 8 18 23 19 21 26 16 14 15 9 7 12 7 18 9 9 6 17 33 36 29 21 29 26 31 26 28 23 21 18 21 20 18 14 14 19 15 13 14 12 13 13 13 16 18 16 15 22 24 26 22 15 18 13 10 15 25 27 29 27 27 40 45 44 45 47 50 50 51 51 51 52 53 54 55
44 44 47 48 46 47 47 46 46 43 32 20 14 33 28 24 26 23 21 18 16 16 13 12 16 13 16 7 6 9 18 23 33 31 26 32 27 32 35 29 31 27 19 19 18 25 18 15 16 16 14 13 26 14 12 13 19 16 20 19 17 15 13 19 21 11 10 10 11 21 25 27 27 31 39 43 43 45 47 50 51 51 51 50 52 53 54 55
45 44 39 43 48 47 46 47 45 39 31 21 19 17 30 29 29 25 23 23 20 18 17 13 10 15 8 9 10 5 18 16 32 34 25 28 23 32 35 32 30 33 25 18 18 23 27 14 16 20 17 23 28 16 12 21 21 22 21 23 28 23 22 13 16 19 18 11 10 17 24 21 32 36 43 42 44 46 49 50 49 52 52 51 52 53 54 54
44 38 38 45 47 47 48 47 41 36 30 22 25 25 27 29 30 30 29 26 23 20 18 16 10 14 12 9 8 6 14 24 31 32 27 32 31 36 35 41 31 33 32 28 25 27 19 18 12 21 22 23 21 25 20 21 16 16 16 19 22 26 33 23 24 18 19 17 13 17 18 24 32 42 45 43 46 47 48 49 49 50 52 52 52 53 54 55
41 38 39 45 47 47 46 42 37 32 30 31 32 31 33 32 32 31 31 30 26 23 22 20 22 19 16 13 8 10 15 34 33 29 32 34 32 26 35 37 35 32 35 31 27 30 23 21 19 24 17 24 28 31 24 25 25 26 26 26 21 23 18 14 16 24 24 22 16 16 15 24 35 46 46 43 45 47 48 51 51 51 50 51 52 53 53 53
38 33 38 46 47 45 41 36 32 35 32 32 31 33 31 35 32 31 29 29 28 27 23 19 18 19 18 11 8 15 17 18 31 32 31 29 34 31 32 38 37 42 38 31 28 32 27 26 23 17 21 23 23 28 29 32 33 32 32 32 29 27 22 20 12 16 23 26 25 23 26 27 41 47 47 46 48 50 50 50 49 50 50 51 52 53 54 54
37 35 41 45 48 41 35 27 32 30 30 32 34 33 33 32 32 30 28 28 27 26 25 21 21 22 21 16 19 15 16 18 29 28 31 32 34 33 35 38 32 35 40 36 30 30 49 22 21 22 27 26 26 27 27 29 31 29 32 35 34 29 29 22 23 26 23 24 21 22 25 28 42 48 48 49 49 49 50 50 50 50 49 51 52 52 53 53
36 38 40 44 44 40 32 25 25 24 29 34 35 34 34 33 31 30 29 29 28 28 27 26 22 19 19 19 19 17 19 17 25 30 29 32 30 34 36 36 33 30 31 33 33 39 25 29 22 19 19 21 23 23 22 27 32 31 30 33 35 34 34 31 28 27 24 25 25 23 23 32 42 49 48 48 49 49 49 50 50 49 50 50 51 51 52 53
36 38 41 42 40 39 31 30 28 26 29 31 32 32 32 33 32 31 32 31 31 28 27 23 21 23 26 25 20 24 25 18 24 28 33 33 32 33 33 38 38 36 38 43 40 31 30 31 25 17 15 14 13 13 15 20 28 30 34 35 35 33 32 24 17 20 17 21 25 27 29 35 45 47 47 47 48 48 49 49 49 49 49 49 49 49 50 51
33 29 31 32 35 35 35 37 34 31 28 31 25 29 33 32 33 33 32 32 31 30 27 23 26 27 27 29 28 27 27 32 27 30 32 31 30 33 35 36 42 43 45 47 45 38 31 34 31 27 21 19 21 24 27 31 31 28 30 35 35 35 34 27 25 23 19 22 28 32 37 38 42 44 45 46 47 46 47 48 47 46 45 45 45 46 45 45
35 29 27 28 33 30 30 33 34 34 30 31 26 30 30 32 32 31 34 28 29 31 29 30 27 25 25 28 27 27 27 31 31 31 32 33 35 33 34 36 38 45 43 42 44 34 33 31 35 32 33 30 30 29 30 31 32 33 32 32 35 35 34 32 25 23 28 28 25 36 40 39 40 43 45 45 46 47 47 45 44 43 43 43 43 43 43 42
27 28 33 34 27 24 27 27 36 35 37 35 30 34 31 31 29 27 31 33 33 31 29 27 27 25 24 27 28 23 25 29 29 26 33 32 35 33 31 32 35 40 42 39 41 38 32 30 35 34 33 34 34 32 34 33 33 33 33 33 34 36 34 33 33 33 27 22 25 38 40 39 41 44 45 45 45 44 44 42 41 41 40 39 39 39 39 38
33 33 34 34 27 29 29 31 36 35 34 35 34 35 31 31 29 31 31 33 31 28 26 20 23 26 23 24 28 24 24 23 21 30 31 29 31 32 31 32 31 37 36 39 39 38 34 31 35 34 32 33 35 34 32 31 31 31 32 33 33 36 36 37 36 36 35 34 37 40 37 34 36 39 41 42 43 41 39 39 40 39 38 38 37 37 36 36
30 30 29 34 32 29 32 34 34 34 28 33 30 35 32 33 30 32 33 32 26 28 26 26 22 24 24 23 27 23 22 26 25 22 30 29 30 34 31 32 35 36 38 37 39 36 34 30 36 36 31 30 35 36 33 31 31 30 31 32 33 34 37 37 37 37 38 38 38 37 35 33 37 40 39 40 38 36 35 35 36 38 38 36 35 35 35 36
34 36 34 31 26 29 34 32 31 30 26 27 28 32 34 36 33 36 34 35 31 28 28 25 26 27 28 25 26 24 25 26 27 27 30 28 25 35 28 31 37 34 38 35 38 37 34 29 35 33 30 28 35 35 33 33 32 31 31 31 31 31 30 33 34 36 36 35 37 37 34 33 37 39 37 37 35 33 32 33 34 35 36 36 36 36 36 36
36 37 37 31 25 31 25 28 29 30 23 21 28 29 29 27 32 38 28 36 38 31 30 28 28 24 25 25 23 24 25 25 25 22 24 25 28 28 26 26 32 34 35 36 39 33 35 32 30 30 30 29 35 35 33 32 29 27 29 31 32 32 34 35 36 36 37 38 36 35 34 36 38 38 34 34 35 33 34 35 33 35 36 36 36 36 36 36